Location: Bartlett
(35.2045°N, 89.8740°W)
Time: 17:30:29
(UTC+00:00)

Transit 4A - Pass Details

Date: 24 December 2025
Orbit: 867 x 974 km, 66.8° (Epoch: 14 January)

Event Time Altitude Azimuth Distance (km) Brightness Sun altitude
Rises 07:01:47 0° 340° (NNW) 3,541 - -72.0°
Reaches altitude 10° 07:04:25 10° 347° (NNW) 2,613 - -71.6°
Maximum altitude 07:10:11 43° 58° (ENE) 1,281 - -70.6°
Drops below altitude 10° 07:16:05 10° 129° (SE) 2,670 - -69.6°
Sets 07:18:47 0° 136° (SE) 3,625 - -69.1°
